This is the latest recevied weather packets stored in our database for station/object W4SKW. If no packets are shown the sender has not sent any weather packets the latest 10 day(s).
| Time | Temp. | Humidity | Pressure | Rain* | Wind** | Luminosity | Snow |
|---|---|---|---|---|---|---|---|
| 1777498276 | 26.11° C | 69% | 1011.3 hPa | 0 mm | - | 261 W/m² | - |
| 1777497975 | 26.11° C | 76% | 1011.4 hPa | 0 mm | - | 232 W/m² | - |
| 1777497670 | 26.67° C | 77% | 1011.3 hPa | 0 mm | - | 213 W/m² | - |
| 1777497367 | 27.22° C | 67% | 1011.4 hPa | 0 mm | - | 269 W/m² | - |
| 1777497063 | 27.22° C | 65% | 1011.2 hPa | 0 mm | - | 271 W/m² | - |
| 1777496760 | 26.67° C | 67% | 1011.4 hPa | 0 mm | - | 204 W/m² | - |
| 1777496456 | 26.67° C | 67% | 1011.5 hPa | 0 mm | - | 196 W/m² | - |
| 1777496153 | 27.22° C | 68% | 1011.3 hPa | 0 mm | - | 331 W/m² | - |
| 1777495849 | 27.22° C | 67% | 1011.4 hPa | 0 mm | - | 332 W/m² | - |
| 1777495545 | 27.22° C | 66% | 1011.5 hPa | 0 mm | - | 406 W/m² | - |
| 1777495241 | 28.33° C | 66% | 1011.4 hPa | 0 mm | - | 471 W/m² | - |
| 1777494939 | 27.78° C | 67% | 1011.6 hPa | 0 mm | - | 550 W/m² | - |
| 1777494636 | 26.67° C | 68% | 1011.6 hPa | 0 mm | - | 463 W/m² | - |
| 1777494333 | 26.67° C | 70% | 1011.8 hPa | 0 mm | - | 374 W/m² | - |
| 1777494030 | 26.67° C | 70% | 1011.8 hPa | 0 mm | - | 374 W/m² | - |
| 1777493728 | 26.67° C | 70% | 1011.8 hPa | 0 mm | - | 401 W/m² | - |
| 1777493426 | 26.67° C | 70% | 1011.9 hPa | 0 mm | - | 418 W/m² | - |
| 1777493121 | 26.67° C | 70% | 1012.2 hPa | 0 mm | - | 221 W/m² | - |
| 1777492818 | 26.67° C | 70% | 1012.5 hPa | 0 mm | - | 649 W/m² | - |
| 1777492515 | 26.67° C | 70% | 1012.5 hPa | 0 mm | - | 649 W/m² | - |
| 1777492210 | 27.22° C | 70% | 1012.3 hPa | 0 mm | - | 142 W/m² | - |
| 1777491908 | 27.78° C | 68% | 1012.8 hPa | 0 mm | - | 691 W/m² | - |
| 1777491604 | 27.78° C | 67% | 1012.8 hPa | 0 mm | - | 691 W/m² | - |
| 1777491301 | 27.78° C | 73% | 1012.6 hPa | 0 mm | - | 705 W/m² | - |
| 1777490903 | 27.78° C | 68% | 1013 hPa | 0 mm | - | 105 W/m² | - |
* Rain latest hour (hover to see other rain measurements)
** Current wind speed in m/s (hover to see current wind gust speed)